FW7722 Weather Reports


time (UTC)temp
F
wind
direction
speed
knots
gust
knots
rain 1hr
in
rain 24hr
in
rain mn
in
humidity
%
barometer
mb
20260504160221 70 289 6.1 8.7 0.00 0.00 0.00 30 1012.9
20260504151150 66 123 5.2 8.7 0.00 0.00 0.00 35 1013.2
20260504150647 67 179 4.3 4.3 0.00 0.00 0.00 34 1013.4
20260504150144 66 302 5.2 6.1 0.00 0.00 0.00 38 1013.2
20260504141113 62 244 3.5 2.6 0.00 0.00 0.00 48 1013.5
20260504140609 61 124 3.5 4.3 0.00 0.00 0.00 49 1013.6
20260504140105 61 269 3.5 4.3 0.00 0.00 0.00 51 1013.8
20260504130533 58 155 5.2 6.1 0.00 0.00 0.00 57 1014.1
20260504110421 46 65 0.9 0.0 0.00 0.00 0.00 63 1014.5
20260504100338 39 36 0.0 0.0 0.00 0.00 0.00 80 1014.4
20260504081731 38 36 0.0 0.0 0.00 0.00 0.00 84 1014.4
20260504081227 38 36 0.0 0.0 0.00 0.00 0.00 84 1014.5
20260504080724 38 36 0.0 0.0 0.00 0.00 0.00 86 1014.2
20260504080221 38 36 0.0 0.0 0.00 0.00 0.00 85 1014.2
20260504070148 39 37 0.0 0.0 0.00 0.00 0.00 82 1014.4
20260504060109 41 36 0.0 0.0 0.00 0.00 0.00 77 1014.3
20260504050537 44 39 0.0 0.0 0.00 0.00 0.00 67 1014.3
20260504045531 46 39 0.0 0.0 0.00 0.00 0.00 61 1014.4
20260504045026 47 39 0.0 0.0 0.00 0.00 0.00 58 1014.3
20260504044524 48 40 0.0 0.0 0.00 0.00 0.00 56 1014.3
20260504044020 48 40 0.0 0.0 0.00 0.00 0.00 54 1014.4
20260504043517 48 40 0.0 0.0 0.00 0.00 0.00 53 1014.0
20260504043015 48 40 0.0 0.0 0.00 0.00 0.00 52 1014.2
20260504042512 48 40 0.0 0.0 0.00 0.00 0.00 53 1014.2
20260504042009 48 40 0.9 1.7 0.00 0.00 0.00 52 1014.0
20260504041504 49 38 0.0 0.0 0.00 0.00 0.00 53 1014.1
20260504041000 48 338 0.0 0.0 0.00 0.00 0.00 52 1014.0
20260504040458 48 336 0.0 0.0 0.00 0.00 0.00 53 1014.0
20260504035954 47 303 1.7 1.7 0.00 0.00 0.00 53 1013.8
20260504035452 46 284 0.9 0.0 0.00 0.00 0.00 58 1013.7
20260504034948 46 284 0.0 0.0 0.00 0.00 0.00 61 1013.8
20260504034446 47 284 0.0 0.0 0.00 0.00 0.00 60 1013.8
20260504033942 48 284 0.0 0.0 0.00 0.00 0.00 58 1013.8
20260504033440 48 284 0.0 0.0 0.00 0.00 0.00 52 1013.7
20260504032938 48 284 0.0 0.0 0.00 0.00 0.00 54 1013.7
20260504032434 47 284 0.0 0.0 0.00 0.00 0.00 54 1013.8
20260504031931 48 284 0.0 0.0 0.00 0.00 0.00 56 1013.5
20260504031428 48 285 0.0 0.0 0.00 0.00 0.00 55 1013.7
20260504030925 48 285 0.0 0.0 0.00 0.00 0.00 53 1013.8
20260504030422 48 285 0.0 0.0 0.00 0.00 0.00 57 1013.7
20260504025918 48 285 0.9 1.7 0.00 0.00 0.00 53 1013.7
20260504025415 48 285 0.9 1.7 0.00 0.00 0.00 57 1013.6
20260504024912 47 285 0.0 0.0 0.00 0.00 0.00 56 1013.7
20260504024409 47 285 0.0 0.0 0.00 0.00 0.00 53 1013.7
20260504023906 47 285 0.9 1.7 0.00 0.00 0.00 57 1013.6
20260504023402 47 285 0.0 0.0 0.00 0.00 0.00 56 1013.7
20260504022857 47 285 0.0 0.0 0.00 0.00 0.00 57 1013.8
20260504022354 47 285 0.0 0.0 0.00 0.00 0.00 57 1013.8
20260504021851 48 285 0.0 0.0 0.00 0.00 0.00 54 1013.6
20260504021348 48 285 0.0 0.0 0.00 0.00 0.00 56 1013.7
20260504020845 48 285 0.0 0.0 0.00 0.00 0.00 55 1013.7
20260504020342 48 285 0.0 0.0 0.00 0.00 0.00 54 1013.7
20260504015838 49 285 0.0 0.0 0.00 0.00 0.00 51 1013.6
20260504015334 49 285 0.0 0.0 0.00 0.00 0.00 53 1013.7
20260504014831 50 285 0.9 0.0 0.00 0.00 0.00 48 1013.5
20260504014326 50 285 0.9 1.7 0.00 0.00 0.00 48 1013.5
20260504013824 50 285 0.0 0.0 0.00 0.00 0.00 47 1013.4
20260504013322 51 285 0.0 0.0 0.00 0.00 0.00 52 1013.5
20260504012819 50 285 0.0 0.0 0.00 0.00 0.00 48 1013.3
20260504012317 50 285 0.0 0.0 0.00 0.00 0.00 46 1013.5
20260504011814 51 285 0.0 0.0 0.00 0.00 0.00 50 1013.5
20260504011310 51 285 0.0 0.0 0.00 0.00 0.00 47 1013.2
20260504010806 52 285 0.0 0.0 0.00 0.00 0.00 44 1013.3
20260504010301 52 285 0.0 0.0 0.00 0.00 0.00 43 1013.3
20260504005758 53 285 0.0 0.0 0.00 0.00 0.00 42 1013.3
20260504005255 53 285 0.0 0.0 0.00 0.00 0.00 42 1013.2
20260504004753 53 285 0.9 0.0 0.00 0.00 0.00 41 1013.3
20260504004250 53 285 0.0 1.7 0.00 0.00 0.00 40 1013.0
20260504003746 53 285 0.0 0.0 0.00 0.00 0.00 40 1013.0
20260504003244 54 285 0.0 0.0 0.00 0.00 0.00 40 1012.9
20260504002740 54 285 0.0 0.0 0.00 0.00 0.00 39 1012.6
20260504002237 55 285 0.0 0.0 0.00 0.00 0.00 39 1012.8
20260504001735 55 285 0.0 0.0 0.00 0.00 0.00 39 1012.8
20260504001232 56 285 0.0 0.0 0.00 0.00 0.00 38 1012.6
20260504000728 57 285 0.0 0.0 0.00 0.00 0.00 34 1012.7
20260504000226 57 284 0.9 0.0 0.00 0.00 0.00 33 1012.6
20260503235724 58 288 0.0 0.0 0.00 0.00 0.00 33 1012.5
20260503235220 58 306 1.7 1.7 0.00 0.00 0.00 31 1012.5
20260503234718 59 271 0.9 1.7 0.00 0.00 0.00 31 1012.3
20260503234216 59 312 3.5 2.6 0.00 0.00 0.00 30 1012.5
20260503233713 60 242 4.3 4.3 0.00 0.00 0.00 30 1012.4
20260503233208 60 294 2.6 2.6 0.00 0.00 0.00 29 1012.3
20260503232705 60 299 1.7 1.7 0.00 0.00 0.00 29 1012.4
20260503232203 60 324 2.6 2.6 0.00 0.00 0.00 30 1012.2
20260503231701 60 321 1.7 2.6 0.00 0.00 0.00 29 1012.4
20260503231157 60 333 3.5 6.1 0.00 0.00 0.00 29 1012.2
20260503230654 60 300 5.2 7.8 0.00 0.00 0.00 28 1012.4
20260503230151 61 298 5.2 7.8 0.00 0.00 0.00 28 1012.2
20260503225648 61 256 1.7 4.3 0.00 0.00 0.00 30 1012.2
20260503225148 61 255 3.5 6.1 0.00 0.00 0.00 29 1012.2
20260503224645 60 267 2.6 2.6 0.00 0.00 0.00 28 1012.2
20260503224143 61 295 0.9 1.7 0.00 0.00 0.00 29 1012.3
20260503223641 60 303 3.5 4.3 0.00 0.00 0.00 28 1012.2
20260503223137 60 303 1.7 1.7 0.00 0.00 0.00 28 1012.1
20260503222635 61 300 2.6 2.6 0.00 0.00 0.00 28 1012.3
20260503222132 61 239 6.1 7.8 0.00 0.00 0.00 27 1012.2
20260503221631 61 308 8.7 13.0 0.00 0.00 0.00 27 1012.1
20260503221128 61 330 7.0 13.0 0.00 0.00 0.00 28 1012.1
20260503220624 61 261 7.0 14.8 0.00 0.00 0.00 27 1012.0
20260503220121 61 289 5.2 7.8 0.00 0.00 0.00 26 1012.2
20260503215618 61 284 4.3 6.1 0.00 0.00 0.00 26 1012.0
20260503215114 62 301 5.2 8.7 0.00 0.00 0.00 27 1012.2
20260503214613 61 295 1.7 2.6 0.00 0.00 0.00 26 1012.1
20260503214109 61 316 5.2 7.8 0.00 0.00 0.00 26 1012.1
20260503213608 62 313 3.5 6.1 0.00 0.00 0.00 24 1012.2
20260503213104 62 292 1.7 2.6 0.00 0.00 0.00 26 1012.3
20260503212601 61 348 2.6 2.6 0.00 0.00 0.00 25 1012.0
20260503212059 61 325 4.3 4.3 0.00 0.00 0.00 26 1011.8
20260503211556 61 342 4.3 7.8 0.00 0.00 0.00 26 1011.9
20260503211051 62 303 3.5 4.3 0.00 0.00 0.00 25 1011.9
20260503210548 61 246 1.7 2.6 0.00 0.00 0.00 28 1012.0
20260503210044 62 301 4.3 4.3 0.00 0.00 0.00 25 1012.2
20260503205541 62 332 5.2 6.1 0.00 0.00 0.00 24 1012.0
20260503205037 62 303 2.6 2.6 0.00 0.00 0.00 27 1012.1
20260503204534 62 235 9.6 16.5 0.00 0.00 0.00 25 1012.2
20260503204031 61 280 7.0 8.7 0.00 0.00 0.00 25 1012.1
20260503203529 61 312 6.1 8.7 0.00 0.00 0.00 25 1012.4
20260503203025 61 238 13.9 16.5 0.00 0.00 0.00 24 1012.2
20260503202523 61 1 4.3 4.3 0.00 0.00 0.00 28 1012.5
20260503202021 61 15 4.3 6.1 0.00 0.00 0.00 25 1012.4
20260503201519 62 303 4.3 6.1 0.00 0.00 0.00 26 1012.3
20260503201016 62 308 6.1 10.4 0.00 0.00 0.00 25 1012.5
20260503200512 61 295 8.7 10.4 0.00 0.00 0.00 25 1012.6
20260503200009 61 291 4.3 6.1 0.00 0.00 0.00 26 1012.5
20260503195506 61 305 6.1 7.8 0.00 0.00 0.00 26 1012.5
20260503195002 61 320 4.3 6.1 0.00 0.00 0.00 26 1012.3
20260503194500 60 301 7.0 8.7 0.00 0.00 0.00 26 1012.4
20260503193955 60 309 6.1 6.1 0.00 0.00 0.00 29 1012.7
20260503193451 60 260 5.2 6.1 0.00 0.00 0.00 28 1012.6
20260503192946 59 355 7.8 8.7 0.00 0.00 0.00 29 1012.5
20260503192443 60 302 3.5 8.7 0.00 0.00 0.00 28 1012.8
20260503191938 59 329 9.6 12.2 0.00 0.00 0.00 28 1013.0
20260503191436 59 293 1.7 2.6 0.00 0.00 0.00 30 1012.9
20260503190932 60 276 8.7 18.2 0.00 0.00 0.00 29 1013.1
20260503190430 60 262 5.2 6.1 0.00 0.00 0.00 28 1012.9
20260503185927 60 298 7.8 12.2 0.00 0.00 0.00 28 1013.0
20260503185423 60 338 7.0 8.7 0.00 0.00 0.00 29 1013.1
20260503184922 59 325 3.5 4.3 0.00 0.00 0.00 28 1013.2
20260503184419 59 297 8.7 10.4 0.00 0.00 0.00 28 1013.2
20260503183916 59 331 11.3 13.0 0.00 0.00 0.00 27 1013.4
20260503183412 59 330 10.4 12.2 0.00 0.00 0.00 27 1013.4
20260503182909 59 317 3.5 4.3 0.00 0.00 0.00 29 1013.4
20260503182409 58 311 1.7 2.6 0.00 0.00 0.00 27 1013.4
20260503181905 58 310 7.0 8.7 0.00 0.00 0.00 28 1013.4
20260503181402 58 334 6.1 7.8 0.00 0.00 0.00 30 1013.4
20260503180858 58 335 4.3 6.1 0.00 0.00 0.00 32 1013.3
20260503180357 58 328 6.1 7.8 0.00 0.00 0.00 28 1013.4
20260503175853 57 313 8.7 10.4 0.00 0.00 0.00 29 1013.6
20260503175351 57 335 3.5 4.3 0.00 0.00 0.00 30 1013.3
20260503174846 57 341 7.8 10.4 0.00 0.00 0.00 30 1013.6
20260503174345 57 4 7.8 12.2 0.00 0.00 0.00 29 1013.4
20260503173845 57 314 8.7 10.4 0.00 0.00 0.00 28 1013.6
20260503173342 57 297 7.0 8.7 0.00 0.00 0.00 30 1013.3
20260503172838 57 338 6.1 7.8 0.00 0.00 0.00 29 1013.5
20260503172336 57 323 2.6 4.3 0.00 0.00 0.00 31 1013.6
20260503171832 57 311 7.0 7.8 0.00 0.00 0.00 29 1013.6
20260503171329 57 294 6.1 8.7 0.00 0.00 0.00 29 1013.8
20260503170827 56 244 5.2 7.8 0.00 0.00 0.00 30 1013.7
20260503170323 57 314 3.5 4.3 0.00 0.00 0.00 32 1013.9